Plainview, TX

2:54 AM CDT on September 26, 2016 (GMT -0500)
Hale County

Weather History for KPVW - December, 2013

Change the Weather History Date:

Saturday, December 14, 2013

  Actual Average Record
Temperature  
Mean Temperature 36 °F -  
Max Temperature 50 °F 49 °F 78 °F (1921)
Min Temperature 22 °F 26 °F 8 °F (1919)
Degree Days  
Heating Degree Days 29    
Moisture  
Dew Point 21 °F    
Average Humidity 54    
Maximum Humidity 74    
Minimum Humidity 32    
Precipitation  
Precipitation 0.00 in - - ()
Sea Level Pressure  
Sea Level Pressure 30.19 in    
Wind  
Wind Speed 14 mph (NNW)    
Max Wind Speed 26 mph    
Max Gust Speed 32 mph    
Visibility 10 miles    
Events      
Averages and records for this station are not official NWS values.
T = Trace of Precipitation, MM = Missing Value Source: NWS Daily Summary

Daily Weather History Graph

Daily Weather History Graph

Search for Another Location

Airport or City:

Trip Planner

Search our weather history database for the weather conditions in past years. The results will help you decide how hot, cold, wet, or windy it might be!

Date:

Astronomy

Dec. 14, 2013 Rise Set
Actual Time 7:44 AM CST 5:38 PM CST
Civil Twilight 7:17 AM CST 6:06 PM CST
Nautical Twilight 6:45 AM CST 6:37 PM CST
Astronomical Twilight 6:15 AM CST 7:08 PM CST
Moon 3:57 PM CST (12/14) 5:12 AM CST (12/14)
Length of Visible Light 10h 49m
Length of Day
9h 53m
Waxing Gibbous, 94% of the Moon is Illuminated
Dec 14
Waxing Gibbous
Dec 17
Full
Dec 25
Last Quarter
Jan 1
New
Jan 7
First Quarter

Hourly Weather History & Observations

Time (CST) Temp. Windchill Dew Point Humidity Pressure Visibility Wind Dir Wind Speed Gust Speed Precip Events Conditions
12:15 AM 34.7 °F 26.4 °F 18.5 °F 52% 29.91 in 10.0 mi NNW 11.5 mph - N/A   Clear
12:35 AM 34.7 °F 26.9 °F 18.3 °F 51% 29.92 in 10.0 mi NNW 10.4 mph - N/A   Clear
12:55 AM 34.7 °F 26.4 °F 17.4 °F 49% 29.93 in 10.0 mi NNW 11.5 mph - N/A   Clear
1:15 AM 34.7 °F 24.7 °F 16.5 °F 48% 29.93 in 10.0 mi NNW 16.1 mph - N/A   Clear
1:35 AM 36.0 °F 26.0 °F 16.7 °F 46% 29.94 in 10.0 mi North 17.3 mph 23.0 mph N/A   Clear
1:55 AM 34.7 °F 25.9 °F 17.4 °F 49% 29.95 in 10.0 mi NNW 12.7 mph 19.6 mph N/A   Clear
2:15 AM 34.7 °F 25.1 °F 17.6 °F 50% 29.97 in 10.0 mi North 15.0 mph - N/A   Clear
2:35 AM 34.7 °F 24.7 °F 18.0 °F 51% 29.99 in 10.0 mi North 16.1 mph 20.7 mph N/A   Clear
2:55 AM 34.7 °F 24.3 °F 18.5 °F 52% 30.00 in 10.0 mi North 17.3 mph 25.3 mph N/A   Clear
3:15 AM 34.7 °F 24.0 °F 19.4 °F 54% 30.00 in 10.0 mi North 18.4 mph 25.3 mph N/A   Clear
3:35 AM 34.7 °F 24.0 °F 20.1 °F 55% 30.01 in 10.0 mi North 18.4 mph 24.2 mph N/A   Clear
3:55 AM 34.7 °F 24.0 °F 20.8 °F 57% 30.03 in 10.0 mi North 18.4 mph 23.0 mph N/A   Clear
4:15 AM 34.5 °F 23.4 °F 21.2 °F 58% 30.03 in 10.0 mi North 19.6 mph 25.3 mph N/A   Clear
4:35 AM 32.2 °F 21.1 °F 19.4 °F 59% 30.04 in 10.0 mi North 17.3 mph - N/A   Clear
4:55 AM 32.2 °F 21.8 °F 20.3 °F 62% 30.05 in 10.0 mi North 15.0 mph - N/A   Clear
5:15 AM 32.2 °F 20.7 °F 20.5 °F 62% 30.06 in 10.0 mi North 18.4 mph 25.3 mph N/A   Clear
5:35 AM 32.0 °F 20.8 °F 20.7 °F 63% 30.07 in 10.0 mi North 17.3 mph 24.2 mph N/A   Clear
5:55 AM 30.7 °F 19.6 °F 20.1 °F 65% 30.09 in 10.0 mi North 16.1 mph - N/A   Clear
6:15 AM 30.7 °F 18.8 °F 20.5 °F 66% 30.11 in 10.0 mi North 18.4 mph 23.0 mph N/A   Clear
6:35 AM 30.6 °F 19.8 °F 20.5 °F 66% 30.12 in 10.0 mi North 15.0 mph 23.0 mph N/A   Clear
6:55 AM 30.0 °F 18.7 °F 20.7 °F 68% 30.13 in 10.0 mi North 16.1 mph 20.7 mph N/A   Clear
7:15 AM 30.0 °F 18.3 °F 21.0 °F 69% 30.15 in 10.0 mi North 17.3 mph 26.5 mph N/A   Clear
7:35 AM 30.0 °F 18.3 °F 20.7 °F 68% 30.15 in 10.0 mi North 17.3 mph 24.2 mph N/A   Clear
7:55 AM 30.0 °F 18.7 °F 20.7 °F 68% 30.16 in 10.0 mi North 16.1 mph 23.0 mph N/A   Clear
8:15 AM 31.5 °F 19.4 °F 21.0 °F 65% 30.17 in 10.0 mi North 19.6 mph 23.0 mph N/A   Clear
8:35 AM 32.2 °F 20.4 °F 21.2 °F 64% 30.18 in 10.0 mi North 19.6 mph 24.2 mph N/A   Clear
8:55 AM 34.7 °F 22.5 °F 22.5 °F 61% 30.20 in 10.0 mi North 24.2 mph 28.8 mph N/A   Clear
9:15 AM 34.7 °F 22.8 °F 21.7 °F 59% 30.22 in 10.0 mi North 23.0 mph 28.8 mph N/A   Clear
9:35 AM 37.2 °F 25.4 °F 23.0 °F 56% 30.22 in 10.0 mi North 26.5 mph 32.2 mph N/A   Clear
9:55 AM 37.4 °F 26.4 °F 23.0 °F 56% 30.24 in 10.0 mi North 23.0 mph 31.1 mph N/A   Clear
10:15 AM 38.3 °F 28.1 °F 23.7 °F 56% 30.24 in 10.0 mi North 20.7 mph 32.2 mph N/A   Clear
10:35 AM 39.7 °F 29.5 °F 24.4 °F 54% 30.24 in 10.0 mi North 23.0 mph 32.2 mph N/A   Clear
10:55 AM 42.3 °F 33.6 °F 25.3 °F 51% 30.25 in 10.0 mi North 19.6 mph 27.6 mph N/A   Clear
11:15 AM 42.8 °F 34.3 °F 25.0 °F 49% 30.26 in 10.0 mi NNE 19.6 mph 26.5 mph N/A   Clear
11:35 AM 43.3 °F 34.0 °F 24.8 °F 48% 30.27 in 10.0 mi North 24.2 mph - N/A   Clear
11:55 AM 45.0 °F 36.6 °F 25.2 °F 46% 30.27 in 10.0 mi North 21.9 mph 26.5 mph N/A   Clear
12:15 PM 44.8 °F 36.6 °F 25.2 °F 46% 30.26 in 10.0 mi North 20.7 mph 31.1 mph N/A   Clear
12:35 PM 46.8 °F - 25.5 °F 43% 30.27 in 10.0 mi North 19.6 mph 25.3 mph N/A   Clear
12:55 PM 47.3 °F - 25.7 °F 43% 30.26 in 10.0 mi North 20.7 mph 29.9 mph N/A   Clear
1:15 PM 47.3 °F - 24.6 °F 41% 30.25 in 10.0 mi North 18.4 mph 23.0 mph N/A   Clear
1:35 PM 48.6 °F - 25.3 °F 40% 30.25 in 10.0 mi North 13.8 mph 24.2 mph N/A   Clear
1:55 PM 50.0 °F - 25.0 °F 38% 30.25 in 10.0 mi North 20.7 mph 25.3 mph N/A   Clear
2:15 PM 50.0 °F - 24.8 °F 37% 30.25 in 10.0 mi North 15.0 mph 25.3 mph N/A   Clear
2:35 PM 50.0 °F - 24.6 °F 37% 30.24 in 10.0 mi North 16.1 mph 21.9 mph N/A   Clear
2:55 PM 50.0 °F - 24.6 °F 37% 30.24 in 10.0 mi NNE 15.0 mph 21.9 mph N/A   Clear
3:15 PM 50.0 °F - 23.2 °F 35% 30.25 in 10.0 mi North 20.7 mph 25.3 mph N/A   Clear
3:35 PM 50.0 °F - 23.0 °F 35% 30.25 in 10.0 mi NNE 12.7 mph 21.9 mph N/A   Clear
3:55 PM 50.0 °F - 22.3 °F 34% 30.25 in 10.0 mi North 15.0 mph 19.6 mph N/A   Clear
4:15 PM 50.0 °F - 21.2 °F 32% 30.25 in 10.0 mi North 19.6 mph 25.3 mph N/A   Clear
4:35 PM 50.0 °F - 21.7 °F 33% 30.26 in 10.0 mi North 12.7 mph - N/A   Clear
4:55 PM 48.0 °F - 20.7 °F 34% 30.26 in 10.0 mi North 13.8 mph 19.6 mph N/A   Clear
5:15 PM 47.3 °F - 20.8 °F 35% 30.27 in 10.0 mi North 9.2 mph - N/A   Clear
5:35 PM 43.7 °F 39.1 °F 19.4 °F 38% 30.27 in 10.0 mi North 8.1 mph - N/A   Clear
5:55 PM 41.0 °F 39.0 °F 19.0 °F 41% 30.27 in 10.0 mi North 3.5 mph - N/A   Clear
6:15 PM 40.8 °F 36.9 °F 19.4 °F 42% 30.27 in 10.0 mi North 5.8 mph - N/A   Clear
6:35 PM 36.3 °F 32.5 °F 19.2 °F 50% 30.28 in 10.0 mi NNW 4.6 mph - N/A   Clear
6:55 PM 35.1 °F 32.2 °F 19.4 °F 53% 30.28 in 10.0 mi NW 3.5 mph - N/A   Clear
7:15 PM 34.7 °F 29.6 °F 20.1 °F 55% 30.28 in 10.0 mi NNW 5.8 mph - N/A   Clear
7:35 PM 33.6 °F 28.4 °F 20.7 °F 59% 30.29 in 10.0 mi NNW 5.8 mph - N/A   Clear
7:55 PM 30.0 °F 26.5 °F 19.0 °F 64% 30.30 in 10.0 mi NNW 3.5 mph - N/A   Clear
8:15 PM 33.4 °F 30.4 °F 20.5 °F 59% 30.30 in 10.0 mi North 3.5 mph - N/A   Clear
8:35 PM 27.5 °F - 18.0 °F 67% 30.31 in 10.0 mi Calm Calm - N/A   Clear
8:55 PM 27.5 °F 23.6 °F 18.9 °F 70% 30.31 in 10.0 mi West 3.5 mph - N/A   Clear
9:15 PM 27.9 °F 24.0 °F 19.0 °F 69% 30.31 in 10.0 mi NNW 3.5 mph - N/A   Clear
9:35 PM 29.7 °F 26.1 °F 19.9 °F 67% 30.31 in 10.0 mi NW 3.5 mph - N/A   Clear
9:55 PM 24.8 °F 20.5 °F 16.7 °F 71% 30.31 in 10.0 mi West 3.5 mph - N/A   Clear
10:15 PM 27.1 °F 21.8 °F 18.1 °F 69% 30.32 in 10.0 mi WNW 4.6 mph - N/A   Clear
10:35 PM 26.6 °F 21.2 °F 17.4 °F 68% 30.31 in 10.0 mi West 4.6 mph - N/A   Clear
10:55 PM 24.8 °F 20.5 °F 16.7 °F 71% 30.31 in 10.0 mi WSW 3.5 mph - N/A   Clear
11:15 PM 24.8 °F 19.1 °F 16.5 °F 71% 30.30 in 10.0 mi West 4.6 mph - N/A   Clear
11:35 PM 22.5 °F 16.3 °F 15.4 °F 74% 30.30 in 10.0 mi West 4.6 mph - N/A   Clear
11:55 PM 22.6 °F 16.5 °F 15.6 °F 74% 30.31 in 10.0 mi West 4.6 mph - N/A   Clear